Hoonah, AK

9:52 PM AKST on February 19, 2018 (GMT -0900)
Hoonah

Weather History for PAOH - January, 2013

Change the Weather History Date:

Wednesday, January 23, 2013

  Actual Average Record
Temperature  
Mean Temperature 36 °F -  
Max Temperature 39 °F 30 °F 46 °F (2014)
Min Temperature 33 °F 25 °F 17 °F (1997)
Degree Days  
Heating Degree Days 28    
Moisture  
Dew Point 37 °F    
Average Humidity 98    
Maximum Humidity 100    
Minimum Humidity 93    
Precipitation  
Precipitation 0.00 in - - ()
Sea Level Pressure  
Sea Level Pressure 29.61 in    
Wind  
Wind Speed 8 mph (East)    
Max Wind Speed 10 mph    
Max Gust Speed -    
Visibility 10 miles    
Events Rain    
Averages and records for this station are not official NWS values.
T = Trace of Precipitation, MM = Missing Value Source: NWS Daily Summary

Daily Weather History Graph

Daily Weather History Graph

Search for Another Location

Airport or City:

Trip Planner

Search our weather history database for the weather conditions in past years. The results will help you decide how hot, cold, wet, or windy it might be!

Date:

Astronomy

Jan. 23, 2013 Rise Set
Actual Time 8:22 AM AKST 4:05 PM AKST
Civil Twilight 7:36 AM AKST 4:51 PM AKST
Nautical Twilight 6:47 AM AKST 5:40 PM AKST
Astronomical Twilight 6:00 AM AKST 6:27 PM AKST
Moon 1:10 PM AKST (1/23) 5:52 AM AKST (1/23)
Length of Visible Light 9h 15m
Length of Day
7h 43m
Waxing Gibbous, 90% of the Moon is Illuminated
Jan 23
Waxing Gibbous
Jan 26
Full
Feb 3
Last Quarter
Feb 9
New
Feb 17
First Quarter

Hourly Weather History & Observations

Time (AKST) Temp. Windchill Dew Point Humidity Pressure Visibility Wind Dir Wind Speed Gust Speed Precip Events Conditions
12:12 AM 37.4 °F 31.4 °F 37.4 °F 100% 29.62 in 9.0 mi ENE 8.1 mph - 0.00 in   Overcast
12:35 AM 37.4 °F 31.4 °F 37.4 °F 100% 29.62 in 10.0 mi East 8.1 mph - 0.00 in   Overcast
12:56 AM 36.9 °F 30.7 °F 36.9 °F 100% 29.63 in 9.0 mi ENE 8.1 mph - 0.00 in   Mostly Cloudy
1:13 AM 37.4 °F 30.3 °F 37.4 °F 100% 29.61 in 10.0 mi ENE 10.4 mph - 0.00 in   Overcast
1:56 AM 36.0 °F 29.0 °F 36.0 °F 100% 29.62 in 10.0 mi East 9.2 mph - 0.00 in   Overcast
2:29 AM 37.4 °F 30.8 °F 37.4 °F 100% 29.60 in 10.0 mi East 9.2 mph - N/A   Overcast
2:56 AM 37.4 °F 31.4 °F 37.4 °F 100% 29.60 in 10.0 mi East 8.1 mph - N/A   Overcast
3:23 AM 35.6 °F 29.2 °F 35.6 °F 100% 29.59 in 10.0 mi East 8.1 mph - N/A   Overcast
3:36 AM 35.6 °F 29.9 °F 35.6 °F 100% 29.60 in 10.0 mi East 6.9 mph - N/A   Overcast
3:56 AM 36.0 °F 29.6 °F 36.0 °F 100% 29.60 in 10.0 mi East 8.1 mph - N/A   Overcast
4:40 AM 37.4 °F 30.3 °F 37.4 °F 100% 29.59 in 10.0 mi East 10.4 mph - N/A   Overcast
4:56 AM 36.0 °F 29.0 °F 36.0 °F 100% 29.60 in 10.0 mi East 9.2 mph - N/A   Overcast
5:56 AM 37.4 °F 31.4 °F 37.4 °F 100% 29.58 in 10.0 mi East 8.1 mph - N/A   Overcast
6:56 AM 36.9 °F 30.1 °F 36.9 °F 100% 29.59 in 10.0 mi East 9.2 mph - 0.00 in   Mostly Cloudy
7:10 AM 37.4 °F 32.1 °F 37.4 °F 100% 29.59 in 10.0 mi East 6.9 mph - N/A   Overcast
7:56 AM 36.9 °F 31.4 °F 36.9 °F 100% 29.60 in 10.0 mi East 6.9 mph - N/A   Overcast
8:56 AM 37.4 °F 32.8 °F 37.4 °F 100% 29.60 in 10.0 mi Variable 5.8 mph - N/A   Overcast
9:56 AM 37.9 °F 32.7 °F 36.9 °F 96% 29.61 in 10.0 mi East 6.9 mph - 0.00 in Rain Light Rain
10:12 AM 37.4 °F 32.1 °F 37.4 °F 100% 29.60 in 10.0 mi ENE 6.9 mph - 0.00 in   Mostly Cloudy
10:56 AM 37.9 °F 34.4 °F 37.9 °F 100% 29.61 in 10.0 mi Variable 4.6 mph - 0.00 in   Mostly Cloudy
11:23 AM 37.4 °F 31.4 °F 37.4 °F 100% 29.61 in 10.0 mi East 8.1 mph - N/A   Overcast
11:56 AM 39.2 °F 33.6 °F 37.4 °F 93% 29.60 in 10.0 mi East 8.1 mph - N/A Rain Light Rain
12:20 PM 39.2 °F 33.0 °F 37.4 °F 93% 29.60 in 10.0 mi East 9.2 mph - 0.00 in   Scattered Clouds
12:56 PM 38.8 °F 33.2 °F 37.9 °F 97% 29.60 in 10.0 mi ENE 8.1 mph - 0.00 in Rain Light Rain
1:09 PM 39.2 °F 32.5 °F 37.4 °F 93% 29.59 in 10.0 mi East 10.4 mph - 0.00 in Rain Light Rain
1:56 PM 39.9 °F 33.9 °F 37.9 °F 93% 29.59 in 9.0 mi ENE 9.2 mph - 0.00 in Rain Light Rain
2:56 PM 38.8 °F 32.1 °F 37.9 °F 97% 29.58 in 10.0 mi ENE 10.4 mph - 0.00 in   Mostly Cloudy
3:56 PM 38.8 °F 32.1 °F 36.9 °F 93% 29.58 in 10.0 mi ENE 10.4 mph - N/A   Mostly Cloudy
4:44 PM 39.2 °F 33.0 °F 37.4 °F 93% 29.58 in 10.0 mi ENE 9.2 mph - N/A   Mostly Cloudy
4:56 PM 38.8 °F 33.8 °F 36.9 °F 93% 29.58 in 10.0 mi ENE 6.9 mph - N/A   Mostly Cloudy
5:56 PM 39.2 °F 35.0 °F 37.4 °F 93% 29.58 in 10.0 mi East 5.8 mph - N/A   Mostly Cloudy
6:56 PM 37.9 °F 33.5 °F 36.9 °F 96% 29.61 in 10.0 mi East 5.8 mph - N/A   Overcast
7:56 PM 36.9 °F 31.4 °F 36.9 °F 100% 29.62 in 10.0 mi East 6.9 mph - N/A   Mostly Cloudy
8:56 PM 35.6 °F - 35.6 °F 100% 29.63 in 10.0 mi Calm Calm - N/A   Mostly Cloudy
9:56 PM 34.9 °F - 34.9 °F 100% 29.66 in 10.0 mi Calm Calm - N/A   Overcast
10:56 PM 34.9 °F - 34.9 °F 100% 29.68 in 10.0 mi Calm Calm - N/A   Mostly Cloudy
11:56 PM 33.8 °F - 33.8 °F 100% 29.69 in 10.0 mi Calm Calm - N/A   Mostly Cloudy